CW9825 Weather Reports


time (UTC)temp
C
wind
direction
speed
KPH
gust
KPH
rain 1hr
cm
rain 24hr
cm
rain mn
cm
humidity
%
barometer
mb
20260903213517 23 68 12.9 24.1 0.00 0.00 0.00 79 1006.7
20260903213016 23 55 9.7 24.1 0.00 0.00 0.00 80 1006.8
20260903212516 22 21 9.7 29.0 0.00 0.00 0.00 82 1006.8
20260903212017 22 37 14.5 30.6 0.00 0.00 0.00 83 1006.7
20260903211516 22 60 17.7 30.6 0.00 0.00 0.00 84 1006.8
20260903211015 21 330 14.5 29.0 0.00 0.00 0.00 85 1006.9
20260903210515 21 350 12.9 32.2 0.00 0.00 0.00 87 1006.8
20260903210015 21 42 16.1 32.2 0.00 0.00 0.00 87 1006.8
20260903205514 21 115 12.9 38.6 0.00 0.00 0.00 87 1006.5
20260903205014 21 14 16.1 38.6 0.00 0.00 0.00 87 1006.5
20260903204513 21 51 16.1 46.7 0.00 0.00 0.00 85 1006.8
20260903204013 21 33 27.4 46.7 0.00 0.00 0.00 81 1006.9
20260903203511 22 46 16.1 40.2 0.00 0.00 0.00 78 1006.9
20260903203012 22 43 22.5 40.2 0.00 0.00 0.00 75 1007.0
20260903202511 23 301 12.9 35.4 0.00 0.00 0.00 75 1007.2
20260903202011 23 15 14.5 40.2 0.00 0.00 0.00 75 1007.0
20260903201511 24 335 14.5 40.2 0.00 0.00 0.00 72 1006.8
20260903201009 24 344 11.3 24.1 0.00 0.00 0.00 74 1006.8
20260903200509 23 16 12.9 48.3 0.00 0.00 0.00 71 1006.7
20260903200118 26 347 19.3 48.3 0.00 0.00 0.00 63 1006.7
20260903195508 31 333 4.8 12.9 0.00 0.00 0.00 61 1006.3
20260903195008 31 34 1.6 17.7 0.00 0.00 0.00 61 1005.7
20260903194508 31 30 6.4 25.7 0.00 0.00 0.00 60 1005.6
20260903194007 31 75 6.4 25.7 0.00 0.00 0.00 60 1005.4
20260903193508 31 138 6.4 22.5 0.00 0.00 0.00 59 1005.1
20260903193012 31 86 9.7 22.5 0.00 0.00 0.00 59 1004.9
20260903192508 31 94 6.4 22.5 0.00 0.00 0.00 60 1004.8
20260903192005 31 69 11.3 22.5 0.00 0.00 0.00 61 1004.8
20260903191517 31 105 6.4 19.3 0.00 0.00 0.00 61 1004.9
20260903191005 31 158 8.0 22.5 0.00 0.00 0.00 61 1005.0
20260903190505 31 79 9.7 22.5 0.00 0.00 0.00 61 1004.9
20260903190005 31 144 9.7 24.1 0.00 0.00 0.00 61 1004.9
20260903185504 31 86 12.9 24.1 0.00 0.00 0.00 61 1005.0
20260903185002 31 68 11.3 22.5 0.00 0.00 0.00 62 1005.0
20260903184501 30 117 11.3 20.9 0.00 0.00 0.00 62 1005.1
20260903184102 30 116 9.7 19.3 0.00 0.00 0.00 63 1005.2
20260903183559 30 72 8.0 24.1 0.00 0.00 0.00 63 1005.3
20260903183102 30 157 9.7 24.1 0.00 0.00 0.00 63 1005.4
20260903182558 30 125 8.0 24.1 0.00 0.00 0.00 64 1005.4
20260903182058 30 125 8.0 22.5 0.00 0.00 0.00 65 1005.5
20260903181556 30 5 11.3 22.5 0.00 0.00 0.00 65 1005.8
20260903181054 29 94 8.0 19.3 0.00 0.00 0.00 67 1005.8
20260903180556 29 43 9.7 27.4 0.00 0.00 0.00 67 1005.9
20260903180054 28 122 9.7 27.4 0.00 0.00 0.00 67 1006.1
20260903175554 29 54 11.3 22.5 0.00 0.00 0.00 67 1006.2
20260903175053 29 75 9.7 25.7 0.00 0.00 0.00 67 1006.1
20260903174553 29 101 11.3 25.7 0.00 0.00 0.00 67 1006.1
20260903174052 29 144 14.5 24.1 0.00 0.00 0.00 66 1006.1
20260903173552 29 142 9.7 22.5 0.00 0.00 0.00 66 1006.0
20260903173052 29 131 11.3 27.4 0.00 0.00 0.00 66 1006.0
20260903172552 29 109 14.5 27.4 0.00 0.00 0.00 66 1006.0
20260903172050 29 130 12.9 27.4 0.00 0.00 0.00 66 1006.0
20260903171604 28 168 12.9 29.0 0.00 0.00 0.00 67 1006.1
20260903171047 28 155 12.9 29.0 0.00 0.00 0.00 69 1006.1
20260903170546 28 171 11.3 20.9 0.00 0.00 0.00 69 1006.2
20260903170051 28 161 8.0 22.5 0.00 0.00 0.00 69 1006.4
20260903165544 28 161 8.0 22.5 0.00 0.00 0.00 70 1006.5
20260903165044 27 52 6.4 20.9 0.00 0.00 0.00 71 1006.5
20260903164541 27 116 9.7 20.9 0.00 0.00 0.00 71 1006.5
20260903164041 27 47 11.3 24.1 0.00 0.00 0.00 71 1006.6
20260903163540 27 123 11.3 29.0 0.00 0.00 0.00 72 1006.7
20260903163043 27 90 12.9 29.0 0.00 0.00 0.00 71 1006.7
20260903162539 27 98 14.5 27.4 0.00 0.00 0.00 71 1006.6
20260903162038 27 123 11.3 24.1 0.00 0.00 0.00 72 1006.5
20260903161537 26 110 12.9 22.5 0.00 0.00 0.00 74 1006.4
20260903161034 26 58 12.9 19.3 0.00 0.00 0.00 75 1006.7
20260903160534 26 112 8.0 17.7 0.00 0.00 0.00 74 1007.1
20260903160033 26 108 8.0 16.1 0.00 0.00 0.00 74 1007.1
20260903155536 26 142 4.8 14.5 0.00 0.00 0.00 73 1007.5
20260903155038 26 131 6.4 17.7 0.00 0.00 0.00 72 1007.6
20260903154533 26 96 8.0 17.7 0.00 0.00 0.00 72 1007.5
20260903154033 26 83 9.7 17.7 0.00 0.00 0.00 72 1007.6
20260903153529 26 92 6.4 20.9 0.00 0.00 0.00 73 1007.3
20260903153029 26 84 9.7 22.5 0.00 0.00 0.00 72 1007.2
20260903152527 26 97 12.9 22.5 0.00 0.00 0.00 73 1007.2
20260903152026 25 134 8.0 19.3 0.00 0.00 0.00 73 1007.3
20260903151525 25 83 9.7 22.5 0.00 0.00 0.00 73 1007.5
20260903151023 25 131 9.7 22.5 0.00 0.00 0.00 74 1007.4
20260903150522 24 91 11.3 22.5 0.00 0.00 0.00 75 1007.2
20260903150034 24 101 12.9 22.5 0.00 0.00 0.00 74 1007.3
20260903145520 24 103 8.0 19.3 0.00 0.00 0.00 74 1007.3
20260903145018 24 143 8.0 19.3 0.00 0.00 0.00 74 1007.5
20260903144517 24 114 6.4 19.3 0.00 0.00 0.00 74 1007.6
20260903144017 23 95 8.0 20.9 0.00 0.00 0.00 75 1007.7
20260903143514 23 101 9.7 20.9 0.00 0.00 0.00 75 1007.8
20260903143013 23 76 8.0 20.9 0.00 0.00 0.00 75 1007.8
20260903142512 23 69 8.0 22.5 0.00 0.00 0.00 75 1008.0
20260903142010 23 66 12.9 22.5 0.00 0.00 0.00 75 1007.9
20260903141511 23 19 9.7 20.9 0.00 0.00 0.00 75 1007.9
20260903141010 22 47 12.9 20.9 0.00 0.00 0.00 76 1008.0
20260903140507 22 68 8.0 20.9 0.00 0.00 0.00 76 1008.1
20260903140004 22 82 8.0 19.3 0.00 0.00 0.00 76 1008.1
20260903135507 22 108 11.3 19.3 0.00 0.00 0.00 76 1008.2
20260903135003 22 64 9.7 19.3 0.00 0.00 0.00 76 1008.2
20260903134502 22 100 11.3 19.3 0.00 0.00 0.00 76 1008.3
20260903134004 22 105 8.0 17.7 0.00 0.00 0.00 77 1008.5
20260903133604 22 72 6.4 16.1 0.00 0.00 0.00 77 1008.6
20260903133103 21 97 9.7 16.1 0.00 0.00 0.00 77 1008.6
20260903132558 21 65 6.4 14.5 0.00 0.00 0.00 77 1008.6
20260903132058 21 64 6.4 12.9 0.00 0.00 0.00 78 1008.5
20260903131607 21 100 4.8 14.5 0.00 0.00 0.00 78 1008.5
20260903131059 21 84 6.4 14.5 0.00 0.00 0.00 78 1008.4
20260903130555 21 86 8.0 16.1 0.00 0.00 0.00 78 1008.6
20260903130056 21 78 8.0 16.1 0.00 0.00 0.00 78 1008.6
20260903125555 21 80 8.0 11.3 0.00 0.00 0.00 77 1008.6
20260903125055 21 67 3.2 11.3 0.00 0.00 0.00 77 1008.6
20260903124606 21 32 4.8 16.1 0.00 0.00 0.00 78 1008.6
20260903124053 21 92 6.4 17.7 0.00 0.00 0.00 78 1008.5
20260903123551 20 96 8.0 17.7 0.00 0.00 0.00 78 1008.4
20260903123050 20 165 9.7 16.1 0.00 0.00 0.00 79 1008.3
20260903122549 20 63 6.4 16.1 0.00 0.00 0.00 79 1008.4
20260903122048 20 116 6.4 14.5 0.00 0.00 0.00 79 1008.5
20260903121547 20 73 6.4 16.1 0.00 0.00 0.00 79 1008.3
20260903121046 20 26 6.4 16.1 0.00 0.00 0.00 79 1008.5
20260903120545 20 75 6.4 14.5 0.00 0.00 0.00 79 1008.5
20260903120055 20 86 8.0 14.5 0.00 0.00 0.00 78 1008.4
20260903115543 20 98 8.0 14.5 0.00 0.00 0.00 78 1008.4
20260903115043 20 95 6.4 12.9 0.00 0.00 0.00 78 1008.6
20260903114543 20 96 3.2 12.9 0.00 0.00 0.00 78 1008.6
20260903114042 20 92 6.4 12.9 0.00 0.00 0.00 78 1008.7
20260903113545 20 102 6.4 12.9 0.00 0.00 0.00 77 1008.7
20260903113047 20 98 6.4 14.5 0.00 0.00 0.00 77 1008.8
20260903112543 20 126 4.8 12.9 0.00 0.00 0.00 77 1008.8
20260903112041 20 92 4.8 12.9 0.00 0.00 0.00 77 1008.8
20260903111540 20 111 8.0 12.9 0.00 0.00 0.00 77 1008.9
20260903111039 20 56 4.8 11.3 0.00 0.00 0.00 77 1009.0
20260903110538 20 97 4.8 11.3 0.00 0.00 0.00 77 1009.2
20260903110038 20 98 4.8 11.3 0.00 0.00 0.00 77 1009.2
20260903105541 20 96 4.8 9.7 0.00 0.00 0.00 77 1009.2
20260903105039 20 94 3.2 8.0 0.00 0.00 0.00 77 1009.1
20260903104539 20 79 3.2 9.7 0.00 0.00 0.00 77 1009.1
20260903104037 20 50 3.2 9.7 0.00 0.00 0.00 77 1009.0
20260903103537 20 74 4.8 9.7 0.00 0.00 0.00 78 1009.1
20260903103036 20 78 3.2 9.7 0.00 0.00 0.00 78 1009.2
20260903102536 20 63 4.8 9.7 0.00 0.00 0.00 78 1009.2
20260903102035 20 51 4.8 9.7 0.00 0.00 0.00 78 1009.3
20260903101544 19 92 3.2 9.7 0.00 0.00 0.00 78 1009.4
20260903101035 19 79 1.6 6.4 0.00 0.00 0.00 78 1009.4
20260903100535 19 81 3.2 8.0 0.00 0.00 0.00 78 1009.3
20260903100036 19 71 3.2 8.0 0.00 0.00 0.00 78 1009.2
20260903095534 19 82 3.2 6.4 0.00 0.00 0.00 78 1009.3
20260903095033 19 68 3.2 8.0 0.00 0.00 0.00 78 1009.3
20260903094533 19 60 3.2 8.0 0.00 0.00 0.00 78 1009.4
20260903094034 19 66 3.2 6.4 0.00 0.00 0.00 78 1009.5
20260903093532 19 57 1.6 6.4 0.00 0.00 0.00 78 1009.6
20260903093040 19 56 1.6 6.4 0.00 0.00 0.00 78 1009.7
20260903092531 19 58 1.6 6.4 0.00 0.00 0.00 78 1009.7
20260903092031 19 59 3.2 8.0 0.00 0.00 0.00 78 1009.7
20260903091530 19 53 1.6 4.8 0.00 0.00 0.00 78 1009.7
20260903091036 19 51 0.0 4.8 0.00 0.00 0.00 79 1009.7
20260903090531 19 51 1.6 4.8 0.00 0.00 0.00 78 1009.7
20260903090033 18 42 0.0 6.4 0.00 0.00 0.00 79 1009.8
20260903085529 18 63 3.2 6.4 0.00 0.00 0.00 79 1009.7
20260903085029 18 76 3.2 6.4 0.00 0.00 0.00 79 1009.7
20260903084533 19 107 3.2 6.4 0.00 0.00 0.00 79 1009.7
20260903084028 19 65 3.2 6.4 0.00 0.00 0.00 79 1009.8
20260903083528 19 80 3.2 6.4 0.00 0.00 0.00 79 1010.0
20260903083028 19 80 3.2 6.4 0.00 0.00 0.00 79 1009.9
20260903082526 19 69 3.2 6.4 0.00 0.00 0.00 79 1010.0
20260903082026 19 64 3.2 8.0 0.00 0.00 0.00 79 1010.1
20260903081526 19 55 3.2 8.0 0.00 0.00 0.00 79 1010.0
20260903081024 19 71 3.2 9.7 0.00 0.00 0.00 79 1010.1
20260903080524 18 96 4.8 6.4 0.00 0.00 0.00 80 1010.2
20260903080037 19 71 1.6 4.8 0.00 0.00 0.00 79 1010.3
20260903075522 19 64 1.6 4.8 0.00 0.00 0.00 79 1010.4
20260903075022 19 63 1.6 4.8 0.00 0.00 0.00 79 1010.5
20260903074521 19 64 1.6 6.4 0.00 0.00 0.00 79 1010.5
20260903074021 19 63 1.6 9.7 0.00 0.00 0.00 79 1010.5
20260903073520 19 103 3.2 9.7 0.00 0.00 0.00 79 1010.5
20260903073024 19 63 3.2 6.4 0.00 0.00 0.00 79 1010.5
20260903072520 19 57 3.2 9.7 0.00 0.00 0.00 79 1010.4
20260903072021 19 95 3.2 6.4 0.00 0.00 0.00 79 1010.4
20260903071520 19 86 3.2 8.0 0.00 0.00 0.00 79 1010.3
20260903071023 19 72 3.2 8.0 0.00 0.00 0.00 79 1010.5
20260903070517 19 81 3.2 6.4 0.00 0.00 0.00 79 1010.5
20260903070019 19 63 1.6 6.4 0.00 0.00 0.00 79 1010.6
20260903065517 19 60 3.2 6.4 0.00 0.00 0.00 79 1010.7
20260903065017 19 96 3.2 8.0 0.00 0.00 0.00 79 1010.6
20260903064517 19 68 4.8 8.0 0.00 0.00 0.00 79 1010.7
20260903064016 19 92 3.2 6.4 0.00 0.00 0.00 79 1010.7
20260903063515 19 77 1.6 6.4 0.00 0.00 0.00 79 1010.9
20260903063015 19 81 3.2 6.4 0.00 0.00 0.00 79 1011.0
20260903062515 19 84 1.6 6.4 0.00 0.00 0.00 79 1011.1
20260903062015 19 86 1.6 6.4 0.00 0.00 0.00 79 1011.1
20260903061516 19 87 3.2 6.4 0.00 0.00 0.00 79 1011.1
20260903061116 19 87 3.2 6.4 0.00 0.00 0.00 79 1011.2
20260903060513 19 72 1.6 9.7 0.00 0.00 0.00 79 1011.1
20260903060012 19 77 1.6 9.7 0.00 0.00 0.00 78 1011.1
20260903055512 19 91 3.2 9.7 0.00 0.00 0.00 78 1011.0
20260903055010 20 58 3.2 8.0 0.00 0.00 0.00 78 1011.0
20260903054512 20 68 4.8 9.7 0.00 0.00 0.00 77 1011.0
20260903054009 20 83 3.2 9.7 0.00 0.00 0.00 77 1010.9
20260903053509 20 88 3.2 9.7 0.00 0.00 0.00 76 1010.9
20260903053007 20 81 4.8 9.7 0.00 0.00 0.00 76 1011.0
20260903052506 20 71 3.2 8.0 0.00 0.00 0.00 75 1011.1
20260903052007 20 78 4.8 8.0 0.00 0.00 0.00 74 1011.2
20260903051507 20 74 3.2 8.0 0.00 0.00 0.00 74 1011.3
20260903051004 20 52 3.2 6.4 0.00 0.00 0.00 74 1011.3
20260903050602 20 88 1.6 6.4 0.00 0.00 0.00 73 1011.2
20260903050005 20 71 3.2 6.4 0.00 0.00 0.00 72 1011.3
20260903045502 20 48 1.6 6.4 0.00 0.00 0.00 72 1011.4
20260903045002 20 42 1.6 6.4 0.00 0.00 0.00 71 1011.3
20260903044505 21 65 1.6 6.4 0.00 0.00 0.00 71 1011.4
20260903044001 21 32 1.6 6.4 0.00 0.00 0.00 70 1011.4
20260903043501 21 49 1.6 6.4 0.00 0.00 0.00 70 1011.5
20260903043001 21 59 1.6 6.4 0.00 0.00 0.00 69 1011.5
20260903042500 21 47 1.6 6.4 0.00 0.00 0.00 69 1011.5
20260903042002 21 44 1.6 6.4 0.00 0.00 0.00 68 1011.5
20260903041612 21 37 0.0 4.8 0.00 0.00 0.00 68 1011.4
20260903041100 21 38 0.0 6.4 0.00 0.00 0.00 67 1011.4
20260903040600 21 35 3.2 6.4 0.00 0.00 0.00 67 1011.5
20260903040120 22 47 1.6 8.0 0.00 0.00 0.00 66 1011.5
20260903035559 22 51 3.2 8.0 0.00 0.00 0.00 66 1011.5
20260903035059 22 10 1.6 4.8 0.00 0.00 0.00 66 1011.6
20260903034603 22 10 1.6 6.4 0.00 0.00 0.00 65 1011.7
20260903034102 22 43 1.6 6.4 0.00 0.00 0.00 65 1011.8
20260903033559 22 45 1.6 6.4 0.00 0.00 0.00 65 1011.8
20260903033059 22 96 3.2 8.0 0.00 0.00 0.00 63 1011.9
20260903032559 22 78 3.2 8.0 0.00 0.00 0.00 63 1011.8
20260903032058 22 103 3.2 9.7 0.00 0.00 0.00 62 1011.9
20260903031601 22 85 3.2 8.0 0.00 0.00 0.00 63 1011.8
20260903031101 22 99 3.2 8.0 0.00 0.00 0.00 62 1011.9
20260903030558 23 63 3.2 8.0 0.00 0.00 0.00 62 1011.9
20260903030100 23 56 3.2 8.0 0.00 0.00 0.00 62 1011.9
20260903025557 23 65 3.2 8.0 0.00 0.00 0.00 62 1011.9
20260903025057 23 42 3.2 6.4 0.00 0.00 0.00 62 1011.9
20260903024558 23 64 3.2 6.4 0.00 0.00 0.00 62 1011.8
20260903024057 23 96 3.2 6.4 0.00 0.00 0.00 62 1011.9
20260903023557 23 99 3.2 9.7 0.00 0.00 0.00 61 1011.9
20260903023101 23 58 3.2 9.7 0.00 0.00 0.00 61 1011.9
20260903022601 23 69 4.8 8.0 0.00 0.00 0.00 61 1011.8
20260903022057 23 67 3.2 9.7 0.00 0.00 0.00 61 1011.9
20260903021559 23 97 3.2 8.0 0.00 0.00 0.00 60 1011.9
20260903021057 24 72 3.2 8.0 0.00 0.00 0.00 60 1011.8
20260903020556 24 65 3.2 8.0 0.00 0.00 0.00 60 1011.7
20260903020056 24 101 3.2 8.0 0.00 0.00 0.00 59 1011.5
20260903015556 24 90 4.8 8.0 0.00 0.00 0.00 59 1011.5
20260903015056 25 82 4.8 8.0 0.00 0.00 0.00 58 1011.5
20260903014556 25 55 1.6 8.0 0.00 0.00 0.00 57 1011.6
20260903014056 25 67 3.2 6.4 0.00 0.00 0.00 57 1011.5
20260903013556 25 64 1.6 8.0 0.00 0.00 0.00 57 1011.5
20260903013056 25 80 1.6 8.0 0.00 0.00 0.00 56 1011.5
20260903012555 25 84 3.2 9.7 0.00 0.00 0.00 57 1011.5
20260903012057 25 86 4.8 9.7 0.00 0.00 0.00 57 1011.4
20260903011556 25 82 3.2 9.7 0.00 0.00 0.00 57 1011.3
20260903011058 25 92 3.2 9.7 0.00 0.00 0.00 56 1011.3
20260903010554 25 86 3.2 8.0 0.00 0.00 0.00 55 1011.3
20260903010054 26 55 4.8 8.0 0.00 0.00 0.00 55 1011.4
20260903005554 26 83 3.2 9.7 0.00 0.00 0.00 55 1011.3
20260903005057 26 65 3.2 9.7 0.00 0.00 0.00 55 1011.2
20260903004557 26 67 3.2 9.7 0.00 0.00 0.00 54 1011.2
20260903004054 26 99 3.2 6.4 0.00 0.00 0.00 54 1011.2
20260903003554 26 120 4.8 8.0 0.00 0.00 0.00 54 1011.2
20260903003053 26 87 3.2 11.3 0.00 0.00 0.00 53 1011.1
20260903002554 26 20 4.8 11.3 0.00 0.00 0.00 53 1011.1
20260903002054 26 64 3.2 12.9 0.00 0.00 0.00 53 1011.1
20260903001603 26 56 6.4 12.9 0.00 0.00 0.00 53 1011.1
20260903001053 26 105 6.4 12.9 0.00 0.00 0.00 53 1011.2
20260903000553 26 115 6.4 12.9 0.00 0.00 0.00 52 1011.1
20260903000052 27 64 4.8 12.9 0.00 0.00 0.00 52 1011.1
20260902235552 27 101 6.4 12.9 0.00 0.00 0.00 52 1011.1
20260902235051 27 95 8.0 11.3 0.00 0.00 0.00 51 1011.2
20260902234551 27 98 4.8 11.3 0.00 0.00 0.00 50 1011.2
20260902234053 27 100 6.4 14.5 0.00 0.00 0.00 50 1011.1
20260902233551 27 105 6.4 14.5 0.00 0.00 0.00 50 1011.2
20260902233051 27 94 4.8 14.5 0.00 0.00 0.00 50 1011.2
20260902232550 27 80 4.8 14.5 0.00 0.00 0.00 49 1011.2
20260902232050 27 105 4.8 12.9 0.00 0.00 0.00 48 1011.2
20260902231550 27 82 4.8 11.3 0.00 0.00 0.00 48 1011.2
20260902231051 27 71 1.6 9.7 0.00 0.00 0.00 48 1011.2
20260902230551 27 45 3.2 11.3 0.00 0.00 0.00 48 1011.1
20260902230051 27 100 6.4 11.3 0.00 0.00 0.00 48 1011.2
20260902225549 27 65 4.8 12.9 0.00 0.00 0.00 48 1011.2
20260902225049 27 73 3.2 11.3 0.00 0.00 0.00 48 1011.2
20260902224555 27 112 6.4 11.3 0.00 0.00 0.00 47 1011.1
20260902224049 27 60 6.4 11.3 0.00 0.00 0.00 47 1011.2
20260902223549 27 74 4.8 12.9 0.00 0.00 0.00 47 1011.1
20260902223050 27 93 3.2 9.7 0.00 0.00 0.00 46 1011.1
20260902222547 27 82 4.8 9.7 0.00 0.00 0.00 47 1011.1
20260902222048 27 90 6.4 11.3 0.00 0.00 0.00 47 1011.2
20260902221551 27 61 4.8 11.3 0.00 0.00 0.00 46 1011.3
20260902221045 27 65 4.8 12.9 0.00 0.00 0.00 47 1011.4
20260902220545 27 71 4.8 12.9 0.00 0.00 0.00 46 1011.4
20260902220053 27 92 6.4 12.9 0.00 0.00 0.00 47 1011.4
20260902215544 27 86 3.2 8.0 0.00 0.00 0.00 46 1011.4
20260902215144 27 44 3.2 11.3 0.00 0.00 0.00 45 1011.5
20260902214543 28 110 4.8 16.1 0.00 0.00 0.00 44 1011.5
20260902214043 28 15 6.4 16.1 0.00 0.00 0.00 45 1011.6